Tracking 31027 objects as of 19-Jul-2025
HD Live streaming from Space Station
objects crossing your sky now

GLOBALSTAR M078

Track GLOBALSTAR M078 now!
10-day predictions
GLOBALSTAR M078 is classified as:


NORAD ID: 39076
Int'l Code: 2013-005E
Perigee: 1,420.2 km
Apogee: 1,421.4 km
Inclination: 52.0 °
Period: 114.1 minutes
Semi major axis: 7791 km
RCS: 4.7444 m2 (large)
Launch date: February 6, 2013
Source: Globalstar (GLOB)
Launch site: TYURATAM MISSILE AND SPACE COMPLEX (TTMTR)

GLOBALSTAR M078 is part of Globalstar's second-generation satellite fleet, which began launching in 2010.
Your satellite tracking list
NSIGHT-1
Track 1 satellite(s)




NASA's NSSDC Master Catalog

Two Line Element Set (TLE):
1 39076U 13005E   25199.52041769 -.00000095  00000-0  50032-4 0  9993
2 39076  51.9844 219.7238 0000748 237.3470 122.7324 12.62259657573871
Source of the keplerian elements: AFSPC